User: anonymous   Login
Location: Fort Wayne
(41.1310°N, 85.1290°W)
Time: 07:38:11
(UTC-04:00)
Language:

Helios 1B - Orbit

View from above orbital plane
View from above orbital plane
View from above satellite
View from above satellite

Ground track
Ground track

The orbit data is extracted from the following two-line orbital elements,

1 25977U 99064A   15111.20755169  .00002632  00000-0  34395-3 0  9992
2 25977 098.1406 198.7207 0000816 035.4642 324.6624 14.81353913827308
Epoch (UTC): 21 April 2015 04:58:52
Eccentricity: 0.0000816
inclination: 98.1406°
perigee height: 624 km
apogee height: 625 km
right ascension of ascending node: 198.7207°
argument of perigee: 35.4642°
revolutions per day: 14.81353913
mean anomaly at epoch: 324.6624°
orbit number at epoch: 82730

The dashed part of the orbit path shows where the satellite is in the earth's shadow,  

DLR